Regional Weather Roundup
Issued by NWS

Home | Current Version | Previous Version | Graphics & Text | Print | Product List | Glossary On
Versions: 1 2 3 4 5 6 7 8 9 10 11 12 13 14 15 16 17 18 19 20 21 22 23 24 25 26 27 28
000
ASUS45 KSLC 230510
RWRUT

UTAH REGIONAL WEATHER ROUNDUP
NATIONAL WEATHER SERVICE SALT LAKE CITY UT
1100 PM MDT TUE AUG 22 2017

UTZ001>011-023>025-230600-

NORTHERN UTAH

CITY           SKY/WX    TMP DP  RH WIND       PRES   REMARKS
BRIGHAM CITY   CLOUDY    75  50  41 E7        30.19F
HILL AFB       MOCLDY    73  51  46 S9        30.23R
LOGAN          CLOUDY    77  50  38 S15       30.16R
OGDEN          CLOUDY    74  54  49 S7        30.19S
SALT LAKE CITY CLOUDY    75  53  46 S14       30.18F
TOOELE VALLEY  CLOUDY    68  55  64 S12G18    30.19F
WENDOVER       CLOUDY    74  52  46 NE9       30.19R
HEBER CITY     CLOUDY    61  50  67 CALM      30.29F
WEST JORDAN    CLOUDY    70  59  67 S14       30.22F

$$

UTZ011>015-024>027-230600-

CENTRAL/NORTHEAST UTAH

CITY           SKY/WX    TMP DP  RH WIND       PRES   REMARKS
PROVO AIRPORT  LGT RAIN  66  59  78 S17       30.23F
MOAB/CANYONLAN PTCLDY    77  47  34 NE10      30.16R
DELTA          PTCLDY    70  50  49 NE10      30.19F
PRICE          CLOUDY    66  52  60 NW7       30.30R
RICHFIELD      CLEAR     63  52  67 CALM      30.28R
ROOSEVELT      CLEAR     68  45  42 SW9       30.26R
VERNAL         CLEAR     72  44  36 SW7       30.24R

$$

UTZ013>016-019>022-027-230600-

SOUTHERN UTAH

CITY           SKY/WX    TMP DP  RH WIND       PRES   REMARKS
BRYCE CANYON   CLEAR     53  50  89 W7        30.42S
CEDAR CITY     PTCLDY    68  45  43 SE5       30.25R
MILFORD        MOCLDY    69  52  54 W8        30.20S
ST GEORGE      CLOUDY    82  44  26 SE6       30.04S
HANKSVILLE     PTCLDY    73  37  27 CALM      30.17S
KANAB          CLEAR     72  48  43 N15       30.23S
BLANDING       CLEAR     70  43  38 NE10      30.34F

$$

REGIONAL REPORTS     COLORADO/ARIZONA

CITY           SKY/WX    TMP DP  RH WIND       PRES   REMARKS
CRAIG, CO      CLOUDY    59  42  53 CALM      30.31R
GRAND JUNCTION CLOUDY    70  49  47 NE6       30.21F
RIFLE, CO      CLOUDY    69  45  41 S6        30.29R
MONTROSE, CO   CLEAR     63  48  58 S3        30.32S
CORTEZ, CO     CLEAR     58  52  80 SE6       30.29R
COLORADO CITY    N/A     66  52  59 CALM      30.23S
PAGE, AZ       MOCLDY    80  47  31 CALM      30.13R
GRAND CANYON   PTCLDY    57  51  80 CALM      30.34S
KINGMAN, AZ    CLEAR     74  48  39 S6        30.09S
FLAGSTAFF, AZ  CLEAR     54  47  77 CALM      30.38R

$$

REGIONAL REPORTS    NEVADA/IDAHO/WYOMING

CITY           SKY/WX    TMP DP  RH WIND       PRES   REMARKS
LAS VEGAS, NV  MOCLDY    94  46  19 S3        29.95S HX  90
ELY, NY        PTCLDY    59  44  57 W8        30.32R
ELKO, NV       CLOUDY    65  48  54 N5        30.23F
POCATELLO, ID  CLEAR     74  36  25 S10       30.13R
BURLEY, ID     CLOUDY    76  47  35 S18       30.08F
FORT BRIDGER,    N/A     69  35  28 SW8       30.37S
EVANSTON, WY   CLOUDY    62  41  46 SW8       30.36S
ROCK SPRINGS,  CLOUDY    69  36  29 W13       30.31R
KEMMERER, WY     N/A    N/A N/A N/A W6        30.37S

$$




USA.gov is the U.S. government's official web portal to all federal, state and local government web resources and services.